GW2622 Weather Reports


time (UTC)temp
F
wind
direction
speed
knots
gust
knots
rain 1hr
in
rain 24hr
in
rain mn
in
humidity
%
barometer
mb
20260904080603 76 241 0.9 1.7 0.00 0.00 0.00 87 1011.5
20260904080059 76 246 1.7 1.7 0.00 0.00 0.00 87 1011.3
20260904075556 76 248 0.9 1.7 0.00 0.00 0.00 86 1011.5
20260904075055 77 250 0.9 2.6 0.00 0.00 0.00 85 1011.5
20260904074555 77 208 1.7 2.6 0.00 0.00 0.00 85 1011.6
20260904074050 77 181 2.6 2.6 0.00 0.00 0.00 84 1011.6
20260904073544 77 196 1.7 2.6 0.00 0.00 0.00 84 1011.6
20260904073041 77 252 1.7 2.6 0.00 0.00 0.00 84 1011.6
20260904072536 77 156 2.6 4.3 0.00 0.00 0.00 84 1011.5
20260904072031 77 178 1.7 2.6 0.00 0.00 0.00 84 1011.6
20260904071527 77 225 1.7 1.7 0.00 0.00 0.00 85 1011.7
20260904071022 77 241 0.9 1.7 0.00 0.00 0.00 85 1011.6
20260904070520 78 171 1.7 2.6 0.00 0.00 0.00 84 1011.6
20260904070015 78 186 1.7 2.6 0.00 0.00 0.00 83 1011.6
20260904065510 78 186 2.6 4.3 0.00 0.00 0.00 83 1011.8
20260904065007 77 161 2.6 2.6 0.00 0.00 0.00 84 1011.7
20260904064503 77 187 2.6 2.6 0.00 0.00 0.00 85 1011.6
20260904063957 77 188 2.6 2.6 0.00 0.00 0.00 85 1011.9
20260904063453 77 198 2.6 2.6 0.00 0.00 0.00 85 1011.8
20260904062948 77 196 1.7 2.6 0.00 0.00 0.00 85 1011.8
20260904062444 77 186 2.6 2.6 0.00 0.00 0.00 85 1012.0
20260904061940 77 204 2.6 2.6 0.00 0.00 0.00 85 1011.8
20260904061436 77 177 2.6 4.3 0.00 0.00 0.00 85 1011.8
20260904060932 77 193 1.7 2.6 0.00 0.00 0.00 85 1011.9
20260904060427 77 192 1.7 4.3 0.00 0.00 0.00 85 1011.8
20260904055923 77 189 2.6 4.3 0.00 0.00 0.00 85 1011.8
20260904055418 77 197 2.6 2.6 0.00 0.00 0.00 85 1012.0
20260904054914 77 177 2.6 2.6 0.00 0.00 0.00 85 1011.8
20260904054409 77 195 1.7 4.3 0.00 0.00 0.00 86 1011.8
20260904053900 77 181 2.6 2.6 0.00 0.00 0.00 86 1012.0
20260904053358 77 176 2.6 2.6 0.00 0.00 0.00 85 1012.0
20260904052854 77 175 2.6 4.3 0.00 0.00 0.00 85 1012.0
20260904052350 78 174 3.5 5.2 0.00 0.00 0.00 85 1012.0
20260904051846 78 169 2.6 2.6 0.00 0.00 0.00 84 1011.8
20260904051342 78 191 2.6 2.6 0.00 0.00 0.00 84 1011.9
20260904050836 78 202 1.7 2.6 0.00 0.00 0.00 84 1011.8
20260904050333 78 192 1.7 1.7 0.00 0.00 0.00 84 1011.9
20260904045828 78 178 2.6 2.6 0.00 0.00 0.00 84 1011.9
20260904045323 78 184 2.6 2.6 0.00 0.00 0.00 84 1011.9
20260904044822 78 219 1.7 2.6 0.00 0.00 0.00 83 1012.0
20260904044319 78 196 1.7 4.3 0.00 0.00 0.00 83 1011.9
20260904043815 79 197 1.7 2.6 0.00 0.00 0.00 83 1012.0
20260904043311 79 244 0.9 1.7 0.00 0.00 0.00 83 1011.8
20260904042806 79 245 0.9 1.7 0.00 0.00 0.00 83 1011.9
20260904042306 79 230 1.7 2.6 0.00 0.00 0.00 82 1011.8
20260904041802 79 185 1.7 2.6 0.00 0.00 0.00 82 1012.0
20260904041259 79 204 1.7 2.6 0.00 0.00 0.00 82 1011.9
20260904040753 79 239 1.7 2.6 0.00 0.00 0.00 83 1011.9
20260904040249 79 220 1.7 1.7 0.00 0.00 0.00 83 1011.9
20260904035745 79 191 1.7 1.7 0.00 0.00 0.00 83 1011.8
20260904035241 79 208 1.7 2.6 0.00 0.00 0.00 83 1011.9
20260904034739 80 197 1.7 1.7 0.00 0.00 0.00 82 1011.9
20260904034236 80 174 2.6 2.6 0.00 0.00 0.00 82 1011.8
20260904033731 80 201 1.7 1.7 0.00 0.00 0.00 81 1012.0
20260904033228 80 203 1.7 1.7 0.00 0.00 0.00 81 1012.0
20260904032723 80 241 0.9 1.7 0.00 0.00 0.00 80 1011.7
20260904032222 80 187 1.7 1.7 0.00 0.00 0.00 80 1011.7
20260904031717 80 205 1.7 1.7 0.00 0.00 0.00 80 1011.8
20260904031213 80 233 1.7 1.7 0.00 0.00 0.00 80 1011.8
20260904030708 81 224 1.7 1.7 0.00 0.00 0.00 80 1011.8
20260904030203 81 211 1.7 1.7 0.00 0.00 0.00 78 1011.8
20260904025700 81 218 1.7 2.6 0.00 0.00 0.00 78 1011.7
20260904025154 81 256 0.9 2.6 0.00 0.00 0.00 78 1011.7
20260904024650 82 247 1.7 2.6 0.00 0.00 0.00 77 1011.7
20260904024145 82 191 2.6 2.6 0.00 0.00 0.00 76 1011.7
20260904023641 82 183 2.6 4.3 0.00 0.00 0.00 75 1011.5
20260904023131 83 226 1.7 2.6 0.00 0.00 0.00 75 1011.6
20260904022631 83 221 1.7 2.6 0.00 0.00 0.00 74 1011.6
20260904022128 83 215 0.9 2.6 0.00 0.00 0.00 74 1011.6
20260904021624 83 229 1.7 4.3 0.00 0.00 0.00 74 1011.4
20260904021118 83 225 1.7 2.6 0.00 0.00 0.00 74 1011.6
20260904020614 84 214 2.6 2.6 0.00 0.00 0.00 73 1011.5
20260904020108 84 182 2.6 4.3 0.00 0.00 0.00 73 1011.3
20260904015603 84 180 2.6 2.6 0.00 0.00 0.00 73 1011.4
20260904015101 84 189 2.6 2.6 0.00 0.00 0.00 73 1011.1
20260904014555 84 205 2.6 4.3 0.00 0.00 0.00 72 1011.1
20260904014051 85 223 2.6 5.2 0.00 0.00 0.00 72 1011.3
20260904013548 85 200 2.6 4.3 0.00 0.00 0.00 71 1011.0
20260904013044 85 180 3.5 5.2 0.00 0.00 0.00 71 1011.0
20260904012538 85 210 2.6 4.3 0.00 0.00 0.00 72 1011.2
20260904012037 85 185 1.7 4.3 0.00 0.00 0.00 73 1011.3
20260904011532 85 210 1.7 2.6 0.00 0.00 0.00 73 1011.1
20260904011027 85 181 2.6 2.6 0.00 0.00 0.00 73 1011.0
20260904010524 85 212 1.7 2.6 0.00 0.00 0.00 74 1010.8
20260904010019 86 173 2.6 2.6 0.00 0.00 0.00 73 1010.8
20260904005514 86 184 2.6 2.6 0.00 0.00 0.00 73 1011.0
20260904005009 86 236 1.7 1.7 0.00 0.00 0.00 73 1010.9
20260904004505 86 219 1.7 2.6 0.00 0.00 0.00 72 1010.8
20260904004005 86 175 2.6 2.6 0.00 0.00 0.00 72 1011.0
20260904003501 87 216 1.7 1.7 0.00 0.00 0.00 72 1010.7
20260904002956 87 183 2.6 2.6 0.00 0.00 0.00 71 1010.8
20260904002452 87 211 1.7 1.7 0.00 0.00 0.00 70 1010.7
20260904001950 88 211 1.7 1.7 0.00 0.00 0.00 70 1010.8
20260904001447 88 200 1.7 1.7 0.00 0.00 0.00 68 1010.8
20260904000941 89 272 0.9 2.6 0.00 0.00 0.00 68 1010.8
20260904000440 89 180 2.6 2.6 0.00 0.00 0.00 66 1010.8
20260903235936 90 202 2.6 4.3 0.00 0.00 0.00 65 1010.8
20260903235432 90 187 2.6 4.3 0.00 0.00 0.00 64 1010.7
20260903234926 91 181 2.6 6.1 0.00 0.00 0.00 63 1010.7
20260903234422 91 177 3.5 5.2 0.00 0.00 0.00 63 1010.7
20260903233918 91 199 3.5 6.1 0.00 0.00 0.00 63 1010.7
20260903233413 92 222 1.7 5.2 0.00 0.00 0.00 62 1010.6
20260903232908 92 199 1.7 5.2 0.00 0.00 0.00 61 1010.7
20260903232403 92 178 4.3 5.2 0.00 0.00 0.00 61 1010.7
20260903231902 92 190 4.3 7.0 0.00 0.00 0.00 60 1010.6
20260903231357 93 271 1.7 4.3 0.00 0.00 0.00 60 1010.8
20260903230853 93 166 6.1 8.7 0.00 0.00 0.00 58 1010.8
20260903230348 93 169 3.5 5.2 0.00 0.00 0.00 59 1010.6
20260903225844 93 191 2.6 6.1 0.00 0.00 0.00 59 1010.5
20260903225340 94 230 2.6 4.3 0.00 0.00 0.00 59 1010.5
20260903224836 94 181 4.3 5.2 0.00 0.00 0.00 58 1010.7
20260903224332 94 163 3.5 7.8 0.00 0.00 0.00 59 1010.4
20260903223827 94 160 3.5 5.2 0.00 0.00 0.00 58 1010.4
20260903223326 94 166 3.5 7.0 0.00 0.00 0.00 56 1010.4
20260903222821 94 175 2.6 6.1 0.00 0.00 0.00 56 1010.5
20260903222320 95 134 5.2 8.7 0.00 0.00 0.00 55 1010.5
20260903221815 95 182 4.3 7.8 0.00 0.00 0.00 57 1010.6
20260903221314 95 179 6.1 7.0 0.00 0.00 0.00 57 1010.8
20260903220812 95 147 3.5 6.1 0.00 0.00 0.00 57 1010.9
20260903220301 95 161 5.2 7.0 0.00 0.00 0.00 56 1010.8
20260903215759 95 197 5.2 6.1 0.00 0.00 0.00 56 1011.0
20260903215256 96 217 4.3 7.8 0.00 0.00 0.00 55 1011.0
20260903214753 96 263 2.6 5.2 0.00 0.00 0.00 55 1010.8
20260903214244 96 207 7.0 8.7 0.00 0.00 0.00 54 1010.9
20260903213738 96 179 4.3 7.8 0.00 0.00 0.00 53 1011.0
20260903213234 96 162 6.1 13.0 0.00 0.00 0.00 53 1011.1
20260903212730 95 166 7.8 8.7 0.00 0.00 0.00 55 1011.2
20260903212226 96 120 5.2 7.8 0.00 0.00 0.00 54 1011.2
20260903211724 96 196 4.3 9.6 0.00 0.00 0.00 53 1011.2
20260903211222 96 225 7.0 8.7 0.00 0.00 0.00 55 1011.3
20260903210717 96 209 4.3 7.0 0.00 0.00 0.00 54 1011.1
20260903210213 96 256 4.3 6.1 0.00 0.00 0.00 54 1011.2
20260903205707 95 167 2.6 6.1 0.00 0.00 0.00 57 1011.3
20260903205206 96 153 4.3 5.2 0.00 0.00 0.00 56 1011.3
20260903204702 96 244 2.6 7.0 0.00 0.00 0.00 56 1011.4
20260903204158 96 150 3.5 6.1 0.00 0.00 0.00 55 1011.3
20260903203653 94 264 4.3 7.0 0.00 0.00 0.00 57 1011.6
20260903203148 95 198 5.2 7.0 0.00 0.00 0.00 56 1011.7
20260903202643 96 219 3.5 6.1 0.00 0.00 0.00 58 1011.5
20260903202138 95 148 4.3 7.0 0.00 0.00 0.00 57 1011.7
20260903201638 95 252 4.3 7.0 0.00 0.00 0.00 57 1011.7
20260903201137 96 194 3.5 7.8 0.00 0.00 0.00 54 1011.6
20260903200632 96 234 4.3 7.0 0.00 0.00 0.00 54 1011.8
20260903200127 96 253 2.6 9.6 0.00 0.00 0.00 55 1011.7
20260903195623 95 199 5.2 8.7 0.00 0.00 0.00 55 1012.1
20260903195119 95 130 5.2 7.8 0.00 0.00 0.00 55 1012.1
20260903194614 95 180 3.5 7.0 0.00 0.00 0.00 56 1012.1
20260903194114 96 216 7.8 8.7 0.00 0.00 0.00 55 1012.3
20260903193610 96 180 4.3 6.1 0.00 0.00 0.00 57 1012.2
20260903193105 95 174 4.3 6.1 0.00 0.00 0.00 56 1012.4
20260903192602 95 247 2.6 6.1 0.00 0.00 0.00 59 1012.3
20260903192057 94 199 2.6 7.8 0.00 0.00 0.00 58 1012.2
20260903191553 95 176 3.5 4.3 0.00 0.00 0.00 58 1012.2
20260903191048 94 281 0.9 2.6 0.00 0.00 0.00 59 1012.4
20260903190547 94 222 3.5 6.1 0.00 0.00 0.00 58 1012.4
20260903190047 94 177 3.5 5.2 0.00 0.00 0.00 57 1012.7
20260903185542 94 199 1.7 5.2 0.00 0.00 0.00 58 1012.4
20260903185038 94 255 2.6 5.2 0.00 0.00 0.00 58 1012.5
20260903184534 94 218 3.5 7.8 0.00 0.00 0.00 59 1012.5
20260903184029 92 208 5.2 7.0 0.00 0.00 0.00 59 1012.4
20260903183528 92 219 3.5 5.2 0.00 0.00 0.00 62 1012.7
20260903183024 92 221 4.3 5.2 0.00 0.00 0.00 61 1012.8
20260903182522 93 212 4.3 6.1 0.00 0.00 0.00 58 1012.9
20260903182019 95 210 7.8 11.3 0.00 0.00 0.00 57 1012.8
20260903181517 94 279 2.6 4.3 0.00 0.00 0.00 57 1012.7
20260903181017 95 259 4.3 6.1 0.00 0.00 0.00 57 1012.8
20260903180513 94 228 2.6 7.8 0.00 0.00 0.00 58 1012.7
20260903180012 94 230 3.5 7.8 0.00 0.00 0.00 58 1012.7
20260903175511 93 239 4.3 6.1 0.00 0.00 0.00 58 1012.8
20260903175010 93 216 6.1 7.8 0.00 0.00 0.00 57 1012.8
20260903174505 93 224 4.3 7.0 0.00 0.00 0.00 59 1012.8
20260903174000 93 222 4.3 7.8 0.00 0.00 0.00 59 1012.8
20260903173455 93 203 7.8 8.7 0.00 0.00 0.00 59 1012.7
20260903172950 94 178 4.3 8.7 0.00 0.00 0.00 55 1012.9
20260903172445 94 285 0.9 4.3 0.00 0.00 0.00 57 1012.9
20260903171941 93 213 6.1 9.6 0.00 0.00 0.00 57 1012.9
20260903171436 93 273 1.7 8.7 0.00 0.00 0.00 59 1013.1
20260903170936 93 233 4.3 7.0 0.00 0.00 0.00 59 1013.2
20260903170431 94 223 2.6 4.3 0.00 0.00 0.00 58 1012.9
20260903165930 93 213 4.3 7.0 0.00 0.00 0.00 58 1013.1
20260903165424 94 233 2.6 5.2 0.00 0.00 0.00 56 1013.1
20260903164918 93 188 2.6 6.1 0.00 0.00 0.00 56 1013.0
20260903164414 93 264 1.7 5.2 0.00 0.00 0.00 58 1013.0
20260903163913 93 220 4.3 6.1 0.00 0.00 0.00 57 1013.0
20260903163409 93 232 4.3 7.0 0.00 0.00 0.00 59 1012.9
20260903162905 92 291 2.6 6.1 0.00 0.00 0.00 59 1012.9
20260903162402 92 228 3.5 5.2 0.00 0.00 0.00 59 1013.0
20260903161857 91 231 4.3 6.1 0.00 0.00 0.00 60 1013.0
20260903161352 92 233 1.7 5.2 0.00 0.00 0.00 62 1013.3
20260903160848 92 216 5.2 6.1 0.00 0.00 0.00 60 1013.3
20260903160346 92 246 1.7 2.6 0.00 0.00 0.00 57 1013.1
20260903155845 90 227 1.7 5.2 0.00 0.00 0.00 62 1013.3
20260903155341 90 291 1.7 5.2 0.00 0.00 0.00 61 1013.4
20260903154837 91 241 5.2 6.1 0.00 0.00 0.00 61 1013.2
20260903154333 91 262 2.6 2.6 0.00 0.00 0.00 60 1013.3
20260903153833 90 271 0.9 4.3 0.00 0.00 0.00 62 1013.2
20260903153329 89 254 2.6 7.0 0.00 0.00 0.00 63 1013.2
20260903152825 89 256 2.6 5.2 0.00 0.00 0.00 65 1013.2
20260903152320 90 267 1.7 4.3 0.00 0.00 0.00 64 1013.2
20260903151815 89 262 1.7 4.3 0.00 0.00 0.00 65 1013.2
20260903151311 88 285 1.7 4.3 0.00 0.00 0.00 66 1013.3
20260903150811 89 270 2.6 4.3 0.00 0.00 0.00 68 1013.4
20260903150311 88 263 0.0 2.6 0.00 0.00 0.00 67 1013.2
20260903145806 88 246 2.6 4.3 0.00 0.00 0.00 68 1013.2
20260903145301 86 220 2.6 2.6 0.00 0.00 0.00 70 1013.4
20260903144800 86 243 2.6 4.3 0.00 0.00 0.00 70 1013.3
20260903144256 86 223 0.9 4.3 0.00 0.00 0.00 70 1013.3
20260903143752 85 258 1.7 2.6 0.00 0.00 0.00 71 1013.3
20260903143248 85 247 1.7 2.6 0.00 0.00 0.00 72 1013.4
20260903142743 84 274 0.9 2.6 0.00 0.00 0.00 74 1013.4
20260903142239 83 221 0.9 4.3 0.00 0.00 0.00 75 1013.4
20260903141735 83 196 3.5 4.3 0.00 0.00 0.00 73 1013.3
20260903141230 83 219 2.6 4.3 0.00 0.00 0.00 73 1013.3
20260903140725 83 246 1.7 5.2 0.00 0.00 0.00 75 1013.1
20260903140220 82 265 0.9 4.3 0.00 0.00 0.00 76 1013.4
20260903135716 82 273 2.6 2.6 0.00 0.00 0.00 75 1013.6
20260903135211 81 302 0.9 2.6 0.00 0.00 0.00 78 1013.5
20260903134710 81 283 1.7 2.6 0.00 0.00 0.00 77 1013.3
20260903134206 81 234 2.6 4.3 0.00 0.00 0.00 78 1013.4
20260903133704 80 237 2.6 2.6 0.00 0.00 0.00 78 1013.3
20260903133200 80 189 2.6 4.3 0.00 0.00 0.00 78 1013.4
20260903132700 81 273 0.9 0.9 0.00 0.00 0.00 77 1013.4
20260903132200 80 310 0.0 0.0 0.00 0.00 0.00 79 1013.4
20260903131655 80 316 0.0 0.9 0.00 0.00 0.00 81 1013.5
20260903131149 79 296 0.0 0.9 0.00 0.00 0.00 81 1013.6
20260903130644 80 306 0.0 0.0 0.00 0.00 0.00 80 1013.5
20260903130143 78 306 0.0 0.0 0.00 0.00 0.00 81 1013.2
20260903125642 78 307 0.0 0.0 0.00 0.00 0.00 83 1013.3
20260903125137 77 308 0.0 0.9 0.00 0.00 0.00 85 1013.2
20260903124638 76 308 0.9 0.9 0.00 0.00 0.00 86 1013.2
20260903124137 76 279 0.0 0.0 0.00 0.00 0.00 86 1013.2
20260903123631 75 278 0.0 0.9 0.00 0.00 0.00 88 1013.3
20260903123130 75 344 1.7 2.6 0.00 0.00 0.00 88 1013.4
20260903122624 75 326 1.7 1.7 0.00 0.00 0.00 88 1013.0
20260903122119 75 306 0.0 1.7 0.00 0.00 0.00 88 1013.0
20260903121618 75 301 0.9 1.7 0.00 0.00 0.00 88 1013.0
20260903121113 75 279 0.0 0.9 0.00 0.00 0.00 87 1012.6
20260903120612 75 236 1.7 2.6 0.00 0.00 0.00 87 1012.5
20260903120107 75 245 1.7 2.6 0.00 0.00 0.00 87 1012.7
20260903115605 75 236 1.7 1.7 0.00 0.00 0.00 88 1012.6
20260903115100 75 237 1.7 2.6 0.00 0.00 0.00 87 1012.4
20260903114555 75 222 1.7 2.6 0.00 0.00 0.00 87 1012.5
20260903114046 75 232 1.7 2.6 0.00 0.00 0.00 87 1012.4
20260903113541 75 221 1.7 2.6 0.00 0.00 0.00 87 1012.4
20260903113037 75 212 2.6 2.6 0.00 0.00 0.00 86 1012.4
20260903112533 75 244 2.6 2.6 0.00 0.00 0.00 86 1012.5
20260903112028 75 211 2.6 4.3 0.00 0.00 0.00 86 1012.2
20260903111526 75 214 2.6 2.6 0.00 0.00 0.00 87 1012.2
20260903111023 75 209 1.7 2.6 0.00 0.00 0.00 87 1012.2
20260903110518 75 213 2.6 2.6 0.00 0.00 0.00 87 1012.1
20260903110013 75 213 2.6 2.6 0.00 0.00 0.00 86 1011.8
20260903105508 76 195 2.6 4.3 0.00 0.00 0.00 86 1012.0
20260903105007 76 207 1.7 4.3 0.00 0.00 0.00 85 1012.1
20260903104502 77 213 3.5 4.3 0.00 0.00 0.00 85 1012.0
20260903103958 77 230 3.5 5.2 0.00 0.00 0.00 84 1012.0
20260903103454 77 217 4.3 4.3 0.00 0.00 0.00 84 1011.9
20260903102949 77 223 2.6 2.6 0.00 0.00 0.00 84 1011.7
20260903102444 77 215 3.5 5.2 0.00 0.00 0.00 83 1011.8
20260903101942 77 222 2.6 4.3 0.00 0.00 0.00 84 1011.8
20260903101432 77 237 1.7 4.3 0.00 0.00 0.00 84 1011.8
20260903100928 77 206 2.6 4.3 0.00 0.00 0.00 83 1011.7
20260903100423 77 220 3.5 4.3 0.00 0.00 0.00 83 1011.7
20260903095920 77 165 2.6 5.2 0.00 0.00 0.00 83 1011.6
20260903095414 77 219 2.6 4.3 0.00 0.00 0.00 83 1011.8
20260903094909 77 211 2.6 5.2 0.00 0.00 0.00 83 1011.8
20260903094403 78 218 3.5 4.3 0.00 0.00 0.00 82 1011.8
20260903093900 78 219 3.5 5.2 0.00 0.00 0.00 82 1011.9
20260903093354 78 210 3.5 5.2 0.00 0.00 0.00 81 1011.8
20260903092850 78 244 2.6 4.3 0.00 0.00 0.00 81 1011.8
20260903092349 78 184 2.6 5.2 0.00 0.00 0.00 81 1011.7
20260903091848 78 212 2.6 4.3 0.00 0.00 0.00 81 1011.6
20260903091348 78 221 4.3 6.1 0.00 0.00 0.00 80 1011.6
20260903090843 79 215 2.6 4.3 0.00 0.00 0.00 80 1011.8
20260903090338 79 217 2.6 5.2 0.00 0.00 0.00 80 1011.6
20260903085836 79 188 2.6 5.2 0.00 0.00 0.00 79 1011.7
20260903085335 79 198 3.5 5.2 0.00 0.00 0.00 79 1011.8
20260903084834 79 228 3.5 5.2 0.00 0.00 0.00 79 1011.6
20260903084333 79 200 3.5 5.2 0.00 0.00 0.00 79 1011.6
20260903083829 80 200 3.5 4.3 0.00 0.00 0.00 79 1011.6
20260903083325 80 216 3.5 5.2 0.00 0.00 0.00 78 1011.8
20260903082823 80 210 2.6 5.2 0.00 0.00 0.00 78 1011.7
20260903082319 80 190 3.5 5.2 0.00 0.00 0.00 78 1011.7
20260903081814 80 198 4.3 4.3 0.00 0.00 0.00 78 1011.6
20260903081309 80 215 3.5 6.1 0.00 0.00 0.00 78 1011.7